{"data":{"norad_id":46685,"intl_designator":"2020-073R","name":"STARLINK-1781","alt_names":[],"object_type":"PAYLOAD","status":"ACTIVE","operator":null,"country":"US","launch_date":"2020-10-18","launch_site_code":"AFETR","launch_vehicle":null,"mission":null,"orbit_class":"UNKNOWN","rcs_meters":null,"size_class":null,"mass_kg":null,"dimensions":null,"purposes":["comms"],"wikipedia_slug":null,"has_3d_model":false,"image_url":null,"decayed_at":null,"tle_current":{"epoch":"2026-05-25T05:20:19.929696Z","epoch_age_seconds":51789,"freshness":"FRESH","line1":"1 46685U 20073R   26145.22245289  .00092067  00000+0  75005-3 0  9996","line2":"2 46685  53.0446 228.6241 0003131 303.6304  56.4413 15.69906480309075","mean_motion":15.6990648,"eccentricity":0.0003131,"inclination_deg":53.0446,"raan_deg":228.6241,"arg_perigee_deg":303.6304,"mean_anomaly_deg":56.4413,"bstar":0.00075005,"rev_number":30907,"period_min":91.725209007354,"perigee_km":357.05510939107,"apogee_km":361.27400762701,"semimajor_km":6737.301558509,"source":"CELESTRAK","updated_at":"2026-05-25T13:38:16.514894Z"}}}